Regional Weather Roundup
Issued by NWS Cleveland, OH

Home | Current Version | Previous Version | Text Only | Print | Product List | Glossary Off
Versions: 1 2 3 4 5 6 7 8 9 10 11 12 13 14 15 16 17 18 19 20 21 22 23 24 25 26 27 28 29 30 31 32 33 34 35 36 37 38 39 40 41 42 43 44 45 46 47 48 49 50

000
ASUS41 KCLE 182110
RWRCLE
OHIO REGIONAL WEATHER ROUNDUP
NATIONAL WEATHER SERVICE WILMINGTON, OH
500 PM EDT WED OCT 18 2017

NOTE: "FAIR" INDICATES FEW OR NO CLOUDS BELOW 12,000 FEET WITH NO
SIGNIFICANT WEATHER AND/OR OBSTRUCTIONS TO VISIBILITY.

OHZ001>008-015>018-024>027-034-035-043-044-182200-
   NORTHWEST OHIO

CITY           SKY/WX    TMP DP  RH WIND       PRES   REMARKS
DEFIANCE       FAIR      69  39  33 SW17      30.15F
FINDLAY        FAIR      70  38  31 S18       30.16F
TOLEDO EXPRESS FAIR      70  42  36 SW13      30.15F
TOLEDO EXEC    FAIR      70  38  31 S15G21    30.16F
LIMA           FAIR      67  39  35 S15       30.17F
$$

OHZ009>014-019>023-028>033-038-089-182200-
   NORTHEAST OHIO

CITY           SKY/WX    TMP DP  RH WIND       PRES   REMARKS
CLE-HOPKINS    FAIR      69  42  37 S10       30.20F
CLE-LAKEFRONT  FAIR      70  38  31 S13       30.18F
CUY CO. ARPT   SUNNY     70  41  35 S14       30.20F
LORAIN-ELYRIA  FAIR      69  37  30 S12       30.19F
ASHTABULA      FAIR      69  41  36 S12       30.21F
AKRON-CANTON   FAIR      68  42  38 SW10      30.22F
WOOSTER        FAIR      68  39  34 S8        30.22F
MANSFIELD      FAIR      68  38  33 S13       30.20F
YOUNGSTOWN     FAIR      69  42  37 S9        30.21F
$$

OHZ042-051>053-060>062-070>072-077>081-182200-
  SOUTHWEST OHIO

CITY           SKY/WX    TMP DP  RH WIND       PRES   REMARKS
CINC-COVINGTON FAIR      68  45  43 VRB7      30.21F
CINC-LUNKEN    FAIR      70  46  42 SW9       30.22F
HAMILTON       FAIR      71  45  39 VRB6      30.21F
DAYTON         FAIR      66  43  43 S13       30.21F
WRIGHT-PAT AFB MOSUNNY   69  37  31 S10       30.20F
DAYTON GENERAL FAIR      67  41  38 S13       30.20F
WILMINGTON     FAIR      68  42  38 SW14      30.22F
$$

OHZ036-037-039>041-045>050-054>059-063>069-073>076-082>088-182200-
  CENTRAL AND SOUTHEAST OHIO

CITY           SKY/WX    TMP DP  RH WIND       PRES   REMARKS
COLUMBUS       FAIR      69  38  32 SW9       30.22F
OSU AIRPORT    FAIR      68  43  40 S9        30.21F
BOLTON FIELD   SUNNY     70  41  35 S10G17    30.22F
RICKENBACK AFB FAIR      68  39  34 S8        30.22F
NEWARK         FAIR      70  35  27 SW7       30.22F
MARION         FAIR      68  38  33 S15       30.20F
LANCASTER      FAIR      68  43  40 SW9       30.23F
ZANESVILLE     FAIR      68  39  34 S9        30.23F
NEW PHILLY     FAIR      70  42  36 S7        30.23F
$$




USA.gov is the U.S. government's official web portal to all federal, state and local government web resources and services.